Location: Munkebjergskolens Observatorium
(55.3864°N, 10.3987°E)
Time: 23:00:29
(UTC+01:00)

DELTA 1 DEB - Pass Details

Date: 12 December 2023
Orbit: 783 x 826 km, 98.9° (Epoch: 04 March)

Event Time Altitude Azimuth Distance (km) Brightness Sun altitude
Rises 19:06:28 0° 202° (SSW) 3,308 ? -26.5°
Reaches altitude 10° 19:09:13 10° 216° (SW) 2,390 ? -26.9°
Maximum altitude 19:13:28 24° 270° (W) 1,627 ? -27.5°
Drops below altitude 10° 19:17:47 10° 323° (NW) 2,426 ? -28.1°
Sets 19:20:37 0° 337° (NNW) 3,370 ? -28.5°
